User: anonymous   Login
Location: Unspecified
(0.0000°N, 0.0000°E)
Time: 15:26:54
(UTC+00:00)
Language:

AEROCUBE 6B - Orbit

View from above orbital plane
View from above orbital plane
View from above satellite
View from above satellite

Ground track
Ground track

The orbit data is extracted from the following two-line orbital elements,

1 40046U 14033AN  19078.62130809 +.00000275 +00000-0 +46985-4 0  9999
2 40046 097.7870 313.3405 0057867 024.5589 335.8357 14.75311158254897
Epoch (UTC): 19 March 2019 14:54:41
Eccentricity: 0.0057867
inclination: 97.7870°
perigee height: 603 km
apogee height: 685 km
right ascension of ascending node: 313.3405°
argument of perigee: 24.5589°
revolutions per day: 14.75311158
mean anomaly at epoch: 335.8357°
orbit number at epoch: 25489

The dashed part of the orbit path shows where the satellite is in the earth's shadow,  

DLR